KF6ILA Weather Reports


Display with metric or nautical units.
time (UTC)temp
F
wind
direction
speed
MPH
gust
MPH
rain 1hr
in
rain 24hr
in
rain mn
in
humidity
%
barometer
mb
20260510094219 62 254 5.0 10.0 0.00 0.00 0.00 18 1013.2
20260510093722 62 257 5.0 10.0 0.00 0.00 0.00 17 1013.3
20260510092728 62 276 4.0 8.0 0.00 0.00 0.00 17 1013.3
20260510090741 62 289 4.0 9.0 0.00 0.00 0.00 18 1013.2
20260510085746 62 261 3.0 10.0 0.00 0.00 0.00 18 1013.3
20260510084752 62 258 6.0 11.0 0.00 0.00 0.00 19 1013.3
20260510083852 62 257 6.0 14.0 0.00 0.00 0.00 19 1013.4
20260510083758 62 257 6.0 14.0 0.00 0.00 0.00 19 1013.4
20260510083301 62 256 7.0 14.0 0.00 0.00 0.00 19 1013.4
20260510082422 62 253 8.0 13.0 0.00 0.00 0.00 20 1013.3
20260510082307 62 253 8.0 13.0 0.00 0.00 0.00 20 1013.3
20260510081846 62 249 9.0 13.0 0.00 0.00 0.00 20 1013.5
20260510081810 62 249 9.0 13.0 0.00 0.00 0.00 20 1013.5
20260510080816 62 257 5.0 14.0 0.00 0.00 0.00 20 1013.5
20260510080319 62 254 7.0 14.0 0.00 0.00 0.00 20 1013.5
20260510075822 62 246 10.0 14.0 0.00 0.00 0.00 20 1013.5
20260510075325 63 250 9.0 14.0 0.00 0.00 0.00 19 1013.5
20260510074331 63 254 7.0 13.0 0.00 0.00 0.00 17 1013.6
20260510073337 63 243 10.0 14.0 0.00 0.00 0.00 19 1013.5
20260510071846 64 243 10.0 18.0 0.00 0.00 0.00 20 1013.6
20260510070852 64 249 11.0 16.0 0.00 0.00 0.00 17 1013.6
20260510070355 64 250 12.0 17.0 0.00 0.00 0.00 17 1013.7
20260510065858 64 244 12.0 18.0 0.00 0.00 0.00 21 1013.6
20260510064904 64 242 13.0 17.0 0.00 0.00 0.00 23 1013.6
20260510064407 64 240 13.0 17.0 0.00 0.00 0.00 21 1013.6
20260510063502 65 242 15.0 19.0 0.00 0.00 0.00 20 1013.6
20260510063413 65 242 15.0 19.0 0.00 0.00 0.00 20 1013.6
20260510062916 65 241 14.0 19.0 0.00 0.00 0.00 19 1013.6
20260510061425 65 240 13.0 19.0 0.00 0.00 0.00 18 1013.6
20260510060928 65 240 12.0 19.0 0.00 0.00 0.00 17 1013.5
20260510060025 64 241 14.0 20.0 0.00 0.00 0.00 21 1013.5
20260510055934 64 241 14.0 20.0 0.00 0.00 0.00 21 1013.5
20260510054443 63 241 16.0 21.0 0.00 0.00 0.00 31 1013.3
20260510051958 64 242 14.0 18.0 0.00 0.00 0.00 29 1013.5
20260510051501 64 243 12.0 18.0 0.00 0.00 0.00 27 1013.5
20260510050507 64 242 13.0 19.0 0.00 0.00 0.00 33 1013.5
20260510045513 65 242 14.0 19.0 0.00 0.00 0.00 33 1013.5
20260510045016 65 244 12.0 19.0 0.00 0.00 0.00 28 1013.5
20260510043525 65 247 12.0 18.0 0.00 0.00 0.00 27 1013.3
20260510043028 64 244 13.0 18.0 0.00 0.00 0.00 32 1013.4
20260510042531 64 243 12.0 19.0 0.00 0.00 0.00 34 1013.3
20260510041538 64 242 14.0 18.0 0.00 0.00 0.00 36 1013.3
20260510040046 63 240 13.0 17.0 0.00 0.00 0.00 43 1014.0
20260510035549 64 240 13.0 19.0 0.00 0.00 0.00 44 1013.9
20260510035053 63 240 14.0 19.0 0.00 0.00 0.00 45 1013.8
20260510034555 63 240 15.0 19.0 0.00 0.00 0.00 44 1013.8
20260510033105 62 247 12.0 15.0 0.00 0.00 0.00 48 1013.6
20260510032607 62 252 10.0 13.0 0.00 0.00 0.00 50 1013.5
20260510032111 61 250 9.0 15.0 0.00 0.00 0.00 53 1013.5
20260510024632 62 251 12.0 18.0 0.00 0.00 0.00 69 1013.0
20260510023141 62 254 14.0 19.0 0.00 0.00 0.00 71 1012.9
20260510022643 62 257 14.0 19.0 0.00 0.00 0.00 70 1012.9
20260510021650 63 254 13.0 19.0 0.00 0.00 0.00 68 1012.8
20260510021153 64 259 14.0 19.0 0.00 0.00 0.00 67 1012.8
20260510020656 64 255 15.0 19.0 0.00 0.00 0.00 67 1012.9
20260510014707 66 265 15.0 20.0 0.00 0.00 0.00 64 1012.9
20260510013714 67 251 13.0 20.0 0.00 0.00 0.00 63 1012.9
20260510013217 68 254 14.0 19.0 0.00 0.00 0.00 62 1012.8
20260510012720 68 257 12.0 19.0 0.00 0.00 0.00 61 1012.9
20260510012223 69 265 14.0 21.0 0.00 0.00 0.00 60 1012.9
20260510010732 70 262 11.0 20.0 0.00 0.00 0.00 59 1013.0
20260510002756 72 269 14.0 19.0 0.00 0.00 0.00 56 1012.8
20260510002259 72 263 13.0 22.0 0.00 0.00 0.00 56 1012.9
20260510001305 73 260 14.0 22.0 0.00 0.00 0.00 54 1012.8
20260510000808 73 269 16.0 22.0 0.00 0.00 0.00 53 1012.8
20260509235814 74 274 11.0 19.0 0.00 0.00 0.00 52 1012.8
20260509234820 74 256 14.0 20.0 0.00 0.00 0.00 51 1012.9
20260509233329 74 275 16.0 23.0 0.00 0.00 0.00 49 1012.9
20260509232832 75 265 14.0 20.0 0.00 0.00 0.00 51 1012.9
20260509232335 75 270 13.0 22.0 0.00 0.00 0.00 51 1013.0
20260509231838 75 276 12.0 22.0 0.00 0.00 0.00 49 1013.0
20260509231341 76 271 13.0 21.0 0.00 0.00 0.00 51 1013.0
20260509225850 76 275 15.0 20.0 0.00 0.00 0.00 48 1013.2
20260509222908 77 279 11.0 0.0 0.00 0.00 0.00 47 1013.4
20260509221914 77 272 14.0 21.0 0.00 0.00 0.00 44 1013.4
20260509221417 77 253 10.0 21.0 0.00 0.00 0.00 41 1013.5
20260509214932 78 262 13.0 19.0 0.00 0.00 0.00 39 1014.0
20260509214435 78 264 10.0 21.0 0.00 0.00 0.00 40 1013.9
20260509211453 78 245 13.0 21.0 0.00 0.00 0.00 32 1014.3
20260509205008 78 273 13.0 20.0 0.00 0.00 0.00 34 1014.5
20260509204014 78 241 13.0 20.0 0.00 0.00 0.00 33 1014.5
20260509203517 78 270 11.0 19.0 0.00 0.00 0.00 36 1014.5
20260509195541 78 252 10.0 19.0 0.00 0.00 0.00 35 1014.9
20260509195044 78 238 11.0 19.0 0.00 0.00 0.00 33 1015.0
20260509194050 78 252 10.0 15.0 0.00 0.00 0.00 37 1015.1
20260509191605 78 253 10.0 0.0 0.00 0.00 0.00 38 1015.2
20260509184126 76 276 10.0 17.0 0.00 0.00 0.00 39 1015.3
20260509182635 75 239 11.0 17.0 0.00 0.00 0.00 36 1015.2
20260509181144 74 256 9.0 15.0 0.00 0.00 0.00 39 1015.3
20260509180647 74 256 11.0 15.0 0.00 0.00 0.00 37 1015.3
20260509175156 73 264 9.0 14.0 0.00 0.00 0.00 40 1015.3
20260509173705 73 269 10.0 15.0 0.00 0.00 0.00 42 1015.2
20260509173208 73 268 11.0 15.0 0.00 0.00 0.00 41 1015.2
20260509171717 0 256 8.0 14.0 0.00 0.00 0.00
20260509170226 71 254 8.0 16.0 0.00 0.00 0.00 44 1015.1
20260509165232 71 259 9.0 14.0 0.00 0.00 0.00 44 1015.0
20260509164735 71 259 9.0 14.0 0.00 0.00 0.00 45 1015.0
20260509163744 70 248 9.0 16.0 0.00 0.00 0.00 45 1014.0
20260509162250 69 250 9.0 17.0 0.00 0.00 0.00 47 1014.1
20260509161753 69 257 11.0 17.0 0.00 0.00 0.00 47 1014.1
20260509160302 68 255 11.0 16.0 0.00 0.00 0.00 46 1013.9
20260509154314 68 258 9.0 15.0 0.00 0.00 0.00 42 1013.8
20260509153817 67 256 9.0 12.0 0.00 0.00 0.00 41 1013.8
20260509152823 66 246 8.0 14.0 0.00 0.00 0.00 49 1013.8
20260509152326 66 249 9.0 13.0 0.00 0.00 0.00 48 1013.8
20260509151829 65 240 8.0 14.0 0.00 0.00 0.00 51 1013.7
20260509151332 65 244 7.0 15.0 0.00 0.00 0.00 52 1013.8
20260509150338 64 245 11.0 16.0 0.00 0.00 0.00 49 1013.7
20260509145841 64 259 9.0 15.0 0.00 0.00 0.00 45 1013.9
20260509143356 62 246 11.0 16.0 0.00 0.00 0.00 50 1013.6
20260509140414 61 262 10.0 16.0 0.00 0.00 0.00 53 1013.6
20260509135420 60 258 10.0 16.0 0.00 0.00 0.00 51 1013.5
20260509134426 60 262 10.0 15.0 0.00 0.00 0.00 51 1013.5
20260509133929 60 258 9.0 15.0 0.00 0.00 0.00 52 1013.4
20260509125953 60 258 12.0 20.0 0.00 0.00 0.00 52 1013.4
20260509125456 60 256 13.0 17.0 0.00 0.00 0.00 50 1013.3
20260509124959 60 246 11.0 18.0 0.00 0.00 0.00 48 1013.2
20260509124502 60 246 13.0 20.0 0.00 0.00 0.00 45 1013.3
20260509124005 60 250 14.0 20.0 0.00 0.00 0.00 42 1013.2
20260509123508 60 242 13.0 19.0 0.00 0.00 0.00 41 1013.1
20260509121520 61 242 14.0 20.0 0.00 0.00 0.00 35 1013.2
20260509115532 62 237 13.0 20.0 0.00 0.00 0.00 26 1013.1
20260509115035 63 242 15.0 21.0 0.00 0.00 0.00 24 1013.1
20260509114538 63 245 14.0 21.0 0.00 0.00 0.00 23 1013.1
20260509113047 62 243 13.0 18.0 0.00 0.00 0.00 24 1013.1
20260509112550 62 246 12.0 18.0 0.00 0.00 0.00 23 1013.2
20260509112053 62 243 12.0 18.0 0.00 0.00 0.00 23 1013.2
20260509110602 62 246 13.0 21.0 0.00 0.00 0.00 26 1013.2
20260509105608 61 245 14.0 19.0 0.00 0.00 0.00 29 1013.1
20260509105111 61 243 13.0 21.0 0.00 0.00 0.00 31 1013.2
20260509104117 61 243 13.0 20.0 0.00 0.00 0.00 34 1013.1
20260509103620 61 241 14.0 21.0 0.00 0.00 0.00 34 1013.2
20260509103123 61 240 15.0 21.0 0.00 0.00 0.00 36 1013.2
20260509102626 61 243 15.0 21.0 0.00 0.00 0.00 38 1013.2
20260509101632 60 241 15.0 21.0 0.00 0.00 0.00 42 1013.3
20260509095644 61 246 15.0 21.0 0.00 0.00 0.00 43 1013.3